29.03.2024;00:57;77,819;
29.03.2024;00:42;77,820;
29.03.2024;00:27;77,819;
29.03.2024;00:12;77,819;
28.03.2024;23:57;77,819;
28.03.2024;23:42;77,822;
28.03.2024;23:27;77,821;
28.03.2024;23:12;77,822;
28.03.2024;22:57;77,821;
28.03.2024;22:42;77,820;
28.03.2024;22:27;77,820;
28.03.2024;22:12;77,819;
28.03.2024;21:57;77,819;
28.03.2024;21:42;77,819;
28.03.2024;21:27;77,819;
28.03.2024;21:12;77,820;
28.03.2024;20:57;77,819;
28.03.2024;20:42;77,818;
28.03.2024;20:27;77,819;
28.03.2024;20:12;77,819;
28.03.2024;19:57;77,819;
28.03.2024;19:42;77,819;
28.03.2024;19:27;77,818;
28.03.2024;19:12;77,818;
28.03.2024;18:57;77,819;
28.03.2024;18:42;77,818;
28.03.2024;18:27;77,820;
28.03.2024;18:12;77,819;
28.03.2024;17:57;77,820;
28.03.2024;17:42;77,820;
28.03.2024;17:27;77,819;
28.03.2024;17:12;77,819;
28.03.2024;16:57;77,822;
28.03.2024;16:42;77,822;
28.03.2024;16:27;77,823;
28.03.2024;16:12;77,823;
28.03.2024;15:57;77,823;
28.03.2024;15:42;77,823;
28.03.2024;15:27;77,823;
28.03.2024;15:12;77,823;
28.03.2024;14:57;77,823;
28.03.2024;14:42;77,825;
28.03.2024;14:27;77,825;
28.03.2024;14:12;77,823;
28.03.2024;13:57;77,824;
28.03.2024;13:42;77,824;
28.03.2024;13:27;77,824;
28.03.2024;13:12;77,823;
28.03.2024;12:57;77,825;
28.03.2024;12:42;77,824;
28.03.2024;12:27;77,823;
28.03.2024;12:12;77,824;
28.03.2024;11:57;77,823;
28.03.2024;11:42;77,823;
28.03.2024;11:27;77,823;
28.03.2024;11:12;77,822;
28.03.2024;10:57;77,823;
28.03.2024;10:42;77,822;
28.03.2024;10:27;77,823;
28.03.2024;10:12;77,822;
28.03.2024;09:57;77,824;
28.03.2024;09:42;77,823;
28.03.2024;09:27;77,823;
28.03.2024;09:12;77,821;
28.03.2024;08:57;77,822;
28.03.2024;08:42;77,824;
28.03.2024;08:27;77,823;
28.03.2024;08:12;77,821;
28.03.2024;07:57;77,823;
28.03.2024;07:42;77,821;
28.03.2024;07:27;77,823;
28.03.2024;07:12;77,822;
28.03.2024;06:57;77,822;
28.03.2024;06:42;77,825;
28.03.2024;06:27;77,821;
28.03.2024;06:12;77,824;
28.03.2024;05:57;77,825;
28.03.2024;05:42;77,824;
28.03.2024;05:27;77,824;
28.03.2024;05:12;77,826;
28.03.2024;04:57;77,825;
28.03.2024;04:42;77,826;
28.03.2024;04:27;77,826;
28.03.2024;04:12;77,827;
28.03.2024;03:57;77,826;
28.03.2024;03:42;77,825;
28.03.2024;03:27;77,825;
28.03.2024;03:12;77,826;
28.03.2024;02:57;77,826;
28.03.2024;02:42;77,825;
28.03.2024;02:27;77,826;
28.03.2024;02:12;77,826;
28.03.2024;01:57;77,828;
28.03.2024;01:42;77,827;
28.03.2024;01:27;77,827;
28.03.2024;01:12;77,827;
28.03.2024;00:57;77,828;
28.03.2024;00:42;77,828;
28.03.2024;00:27;77,828;
28.03.2024;00:12;77,827;
27.03.2024;23:57;77,827;
27.03.2024;23:42;77,826;
27.03.2024;23:27;77,827;
27.03.2024;23:12;77,827;
27.03.2024;22:57;77,827;
27.03.2024;22:42;77,827;
27.03.2024;22:27;77,828;
27.03.2024;22:12;77,826;
27.03.2024;21:57;77,827;
27.03.2024;21:42;77,828;
27.03.2024;21:27;77,828;
27.03.2024;21:12;77,829;
27.03.2024;20:57;77,829;
27.03.2024;20:42;77,829;
27.03.2024;20:27;77,829;
27.03.2024;20:12;77,829;
27.03.2024;19:57;77,827;
27.03.2024;19:42;77,828;
27.03.2024;19:27;77,827;
27.03.2024;19:12;77,827;
27.03.2024;18:57;77,829;
27.03.2024;18:42;77,828;
27.03.2024;18:27;77,829;
27.03.2024;18:12;77,827;
27.03.2024;17:57;77,828;
27.03.2024;17:42;77,828;
27.03.2024;17:27;77,828;
27.03.2024;17:12;77,828;
27.03.2024;16:57;77,829;
27.03.2024;16:42;77,829;
27.03.2024;16:27;77,829;
27.03.2024;16:12;77,830;
27.03.2024;15:57;77,829;
27.03.2024;15:42;77,830;
27.03.2024;15:27;77,830;
27.03.2024;15:12;77,830;
27.03.2024;14:57;77,830;
27.03.2024;14:42;77,830;
27.03.2024;14:27;77,831;
27.03.2024;14:12;77,832;
27.03.2024;13:57;77,831;
27.03.2024;13:42;77,830;
27.03.2024;13:27;77,831;
27.03.2024;13:12;77,831;
27.03.2024;12:57;77,831;
27.03.2024;12:42;77,830;
27.03.2024;12:27;77,828;
27.03.2024;12:12;77,830;
27.03.2024;11:57;77,830;
27.03.2024;11:42;77,829;
27.03.2024;11:27;77,830;
27.03.2024;11:12;77,828;
27.03.2024;10:57;77,829;
27.03.2024;10:42;77,831;
27.03.2024;10:27;77,829;
27.03.2024;10:12;77,830;
27.03.2024;09:57;77,828;
27.03.2024;09:42;77,828;
27.03.2024;09:27;77,829;
27.03.2024;09:12;77,827;
27.03.2024;08:57;77,828;
27.03.2024;08:42;77,828;
27.03.2024;08:27;77,827;
27.03.2024;08:12;77,829;
27.03.2024;07:57;77,829;
27.03.2024;07:42;77,828;
27.03.2024;07:27;77,828;
27.03.2024;07:12;77,828;
27.03.2024;06:57;77,828;
27.03.2024;06:42;77,829;
27.03.2024;06:27;77,828;
27.03.2024;06:12;77,831;
27.03.2024;05:57;77,829;
27.03.2024;05:42;77,829;
27.03.2024;05:27;77,832;
27.03.2024;05:12;77,831;
27.03.2024;04:57;77,829;
27.03.2024;04:42;77,830;
27.03.2024;04:27;77,829;
27.03.2024;04:12;77,830;
27.03.2024;03:57;77,830;
27.03.2024;03:42;77,831;
27.03.2024;03:27;77,832;
27.03.2024;03:12;77,831;
27.03.2024;02:57;77,831;
27.03.2024;02:42;77,833;
27.03.2024;02:27;77,832;
27.03.2024;02:12;77,831;
27.03.2024;01:57;77,832;
27.03.2024;01:42;77,831;
27.03.2024;01:27;77,832;
27.03.2024;01:12;77,832;
27.03.2024;00:57;77,833;
27.03.2024;00:42;77,832;
27.03.2024;00:27;77,831;
27.03.2024;00:12;77,831;
26.03.2024;23:57;77,830;
26.03.2024;23:42;77,830;
26.03.2024;23:27;77,831;
26.03.2024;23:12;77,830;
26.03.2024;22:57;77,830;
26.03.2024;22:42;77,831;
26.03.2024;22:27;77,832;
26.03.2024;22:12;77,831;
26.03.2024;21:57;77,830;
26.03.2024;21:42;77,830;
26.03.2024;21:27;77,832;
26.03.2024;21:12;77,832;
26.03.2024;20:57;77,830;
26.03.2024;20:42;77,830;
26.03.2024;20:27;77,831;
26.03.2024;20:12;77,831;
26.03.2024;19:57;77,831;
26.03.2024;19:42;77,831;
26.03.2024;19:27;77,831;
26.03.2024;19:12;77,830;
26.03.2024;18:57;77,832;
26.03.2024;18:42;77,830;
26.03.2024;18:27;77,831;
26.03.2024;18:12;77,831;
26.03.2024;17:57;77,832;
26.03.2024;17:42;77,832;
26.03.2024;17:27;77,833;
26.03.2024;17:12;77,831;
26.03.2024;16:57;77,833;
26.03.2024;16:42;77,832;
26.03.2024;16:27;77,833;
26.03.2024;16:12;77,834;
26.03.2024;15:57;77,834;
26.03.2024;15:42;77,833;
26.03.2024;15:27;77,833;
26.03.2024;15:12;77,836;
26.03.2024;14:57;77,834;
26.03.2024;14:42;77,835;
26.03.2024;14:27;77,835;
26.03.2024;14:12;77,834;
26.03.2024;13:57;77,834;
26.03.2024;13:42;77,835;
26.03.2024;13:27;77,834;
26.03.2024;13:12;77,834;
26.03.2024;12:57;77,833;
26.03.2024;12:42;77,834;
26.03.2024;12:27;77,833;
26.03.2024;12:12;77,833;
26.03.2024;11:57;77,834;
26.03.2024;11:42;77,835;
26.03.2024;11:27;77,835;
26.03.2024;11:12;77,835;
26.03.2024;10:57;77,836;
26.03.2024;10:42;77,834;
26.03.2024;10:27;77,835;
26.03.2024;10:12;77,835;
26.03.2024;09:57;77,834;
26.03.2024;09:42;77,834;
26.03.2024;09:27;77,835;
26.03.2024;09:12;77,835;
26.03.2024;08:57;77,834;
26.03.2024;08:42;77,835;
26.03.2024;08:27;77,835;
26.03.2024;08:12;77,836;
26.03.2024;07:57;77,835;
26.03.2024;07:42;77,835;
26.03.2024;07:27;77,836;
26.03.2024;07:12;77,833;
26.03.2024;06:57;77,835;
26.03.2024;06:42;77,835;
26.03.2024;06:27;77,835;
26.03.2024;06:12;77,835;
26.03.2024;05:57;77,835;
26.03.2024;05:42;77,836;
26.03.2024;05:27;77,836;
26.03.2024;05:12;77,836;
26.03.2024;04:58;77,835;
26.03.2024;04:42;77,837;
26.03.2024;04:27;77,837;
26.03.2024;04:12;77,838;
26.03.2024;03:58;77,838;
26.03.2024;03:42;77,838;
26.03.2024;03:27;77,838;
26.03.2024;03:12;77,838;
26.03.2024;02:58;77,839;
26.03.2024;02:42;77,840;
26.03.2024;02:27;77,840;
26.03.2024;02:12;77,839;
26.03.2024;01:58;77,838;
26.03.2024;01:42;77,838;
26.03.2024;01:27;77,838;
26.03.2024;01:12;77,839;
26.03.2024;00:58;77,838;
26.03.2024;00:42;77,838;
26.03.2024;00:27;77,839;
26.03.2024;00:12;77,838;
25.03.2024;23:58;77,836;
25.03.2024;23:42;77,838;
25.03.2024;23:27;77,838;
25.03.2024;23:12;77,837;
25.03.2024;22:58;77,837;
25.03.2024;22:42;77,838;
25.03.2024;22:27;77,839;
25.03.2024;22:12;77,839;
25.03.2024;21:58;77,838;
25.03.2024;21:42;77,839;
25.03.2024;21:27;77,839;
25.03.2024;21:12;77,838;
25.03.2024;20:58;77,837;
25.03.2024;20:42;77,838;
25.03.2024;20:27;77,838;
25.03.2024;20:12;77,837;
25.03.2024;19:58;77,838;
25.03.2024;19:42;77,838;
25.03.2024;19:27;77,837;
25.03.2024;19:12;77,839;
25.03.2024;18:58;77,839;
25.03.2024;18:42;77,837;
25.03.2024;18:27;77,838;
25.03.2024;18:12;77,838;
25.03.2024;17:58;77,838;
25.03.2024;17:42;77,838;
25.03.2024;17:27;77,837;
25.03.2024;17:12;77,837;
25.03.2024;16:58;77,839;
25.03.2024;16:42;77,839;
25.03.2024;16:27;77,838;
25.03.2024;16:12;77,839;
25.03.2024;15:58;77,839;
25.03.2024;15:42;77,838;
25.03.2024;15:27;77,839;
25.03.2024;15:12;77,839;
25.03.2024;14:58;77,839;
25.03.2024;14:42;77,840;
25.03.2024;14:27;77,839;
25.03.2024;14:12;77,839;
25.03.2024;13:58;77,839;
25.03.2024;13:42;77,840;
25.03.2024;13:27;77,839;
25.03.2024;13:12;77,839;
25.03.2024;12:58;77,839;
25.03.2024;12:42;77,839;
25.03.2024;12:27;77,839;
25.03.2024;12:12;77,839;
25.03.2024;11:58;77,838;
25.03.2024;11:42;77,838;
25.03.2024;11:27;77,838;
25.03.2024;11:12;77,838;
25.03.2024;10:58;77,839;
25.03.2024;10:42;77,839;
25.03.2024;10:27;77,840;
25.03.2024;10:12;77,840;
25.03.2024;09:58;77,840;
25.03.2024;09:42;77,838;
25.03.2024;09:27;77,839;
25.03.2024;09:12;77,839;
25.03.2024;08:58;77,839;
25.03.2024;08:42;77,839;
25.03.2024;08:27;77,840;
25.03.2024;08:12;77,838;
25.03.2024;07:58;77,840;
25.03.2024;07:42;77,840;
25.03.2024;07:27;77,840;
25.03.2024;07:12;77,841;
25.03.2024;06:58;77,840;
25.03.2024;06:42;77,841;
25.03.2024;06:27;77,841;
25.03.2024;06:12;77,841;
25.03.2024;05:58;77,842;
25.03.2024;05:42;77,842;
25.03.2024;05:27;77,844;
25.03.2024;05:12;77,843;
25.03.2024;04:58;77,843;
25.03.2024;04:42;77,843;
25.03.2024;04:27;77,844;
25.03.2024;04:12;77,843;
25.03.2024;03:58;77,845;
25.03.2024;03:42;77,844;
25.03.2024;03:27;77,845;
25.03.2024;03:12;77,845;
25.03.2024;02:58;77,847;
25.03.2024;02:42;77,848;
25.03.2024;02:27;77,848;
25.03.2024;02:12;77,846;
25.03.2024;01:58;77,848;
25.03.2024;01:42;77,847;
25.03.2024;01:27;77,848;
25.03.2024;01:12;77,847;
25.03.2024;00:58;77,846;
25.03.2024;00:42;77,847;
25.03.2024;00:27;77,847;
25.03.2024;00:12;77,848;
24.03.2024;23:58;77,848;
24.03.2024;23:42;77,846;
24.03.2024;23:27;77,846;
24.03.2024;23:12;77,846;
24.03.2024;22:58;77,847;
24.03.2024;22:42;77,846;
24.03.2024;22:27;77,848;
24.03.2024;22:12;77,846;
24.03.2024;21:58;77,847;
24.03.2024;21:42;77,848;
24.03.2024;21:27;77,845;
24.03.2024;21:12;77,847;
24.03.2024;20:58;77,847;
24.03.2024;20:42;77,847;
24.03.2024;20:27;77,845;
24.03.2024;20:12;77,847;
24.03.2024;19:58;77,847;
24.03.2024;19:42;77,847;
24.03.2024;19:27;77,846;
24.03.2024;19:12;77,847;
24.03.2024;18:58;77,845;
24.03.2024;18:42;77,847;
24.03.2024;18:27;77,845;
24.03.2024;18:12;77,846;
24.03.2024;17:58;77,845;
24.03.2024;17:42;77,844;
24.03.2024;17:27;77,845;
24.03.2024;17:12;77,844;
24.03.2024;16:58;77,845;
24.03.2024;16:42;77,845;
24.03.2024;16:27;77,845;
24.03.2024;16:12;77,846;
24.03.2024;15:58;77,846;
24.03.2024;15:42;77,846;
24.03.2024;15:27;77,847;
24.03.2024;15:12;77,847;
24.03.2024;14:58;77,846;
24.03.2024;14:42;77,846;
24.03.2024;14:27;77,846;
24.03.2024;14:12;77,845;
24.03.2024;13:58;77,846;
24.03.2024;13:42;77,845;
24.03.2024;13:27;77,844;
24.03.2024;13:12;77,846;
24.03.2024;12:58;77,845;
24.03.2024;12:42;77,847;
24.03.2024;12:27;77,848;
24.03.2024;12:12;77,847;
24.03.2024;11:58;77,846;
24.03.2024;11:42;77,847;
24.03.2024;11:27;77,847;
24.03.2024;11:12;77,848;
24.03.2024;10:58;77,847;
24.03.2024;10:42;77,846;
24.03.2024;10:27;77,846;
24.03.2024;10:12;77,846;
24.03.2024;09:58;77,845;
24.03.2024;09:42;77,845;
24.03.2024;09:27;77,844;
24.03.2024;09:12;77,844;
24.03.2024;08:58;77,844;
24.03.2024;08:42;77,846;
24.03.2024;08:27;77,844;
24.03.2024;08:12;77,844;
24.03.2024;07:58;77,844;
24.03.2024;07:42;77,844;
24.03.2024;07:27;77,843;
24.03.2024;07:12;77,844;
24.03.2024;06:58;77,843;
24.03.2024;06:42;77,843;
24.03.2024;06:27;77,843;
24.03.2024;06:12;77,843;
24.03.2024;05:58;77,844;
24.03.2024;05:42;77,844;
24.03.2024;05:27;77,844;
24.03.2024;05:12;77,846;
24.03.2024;04:58;77,847;
24.03.2024;04:42;77,847;
24.03.2024;04:27;77,847;
24.03.2024;04:12;77,848;
24.03.2024;03:58;77,849;
24.03.2024;03:42;77,850;
24.03.2024;03:27;77,848;
24.03.2024;03:12;77,849;
24.03.2024;02:58;77,850;
24.03.2024;02:42;77,849;
24.03.2024;02:27;77,850;
24.03.2024;02:12;77,849;
24.03.2024;01:58;77,851;
24.03.2024;01:42;77,850;
24.03.2024;01:27;77,849;
24.03.2024;01:12;77,850;
24.03.2024;00:58;77,849;
24.03.2024;00:42;77,849;
24.03.2024;00:27;77,850;
24.03.2024;00:12;77,849;
23.03.2024;23:58;77,849;
23.03.2024;23:42;77,848;
23.03.2024;23:27;77,849;
23.03.2024;23:12;77,850;
23.03.2024;22:58;77,849;
23.03.2024;22:42;77,849;
23.03.2024;22:27;77,848;
23.03.2024;22:12;77,847;
23.03.2024;21:58;77,848;
23.03.2024;21:42;77,848;
23.03.2024;21:27;77,846;
23.03.2024;21:12;77,848;
23.03.2024;20:58;77,847;
23.03.2024;20:42;77,849;
23.03.2024;20:27;77,848;
23.03.2024;20:12;77,847;
23.03.2024;19:58;77,849;
23.03.2024;19:42;77,847;
23.03.2024;19:27;77,849;
23.03.2024;19:12;77,847;
23.03.2024;18:58;77,848;
23.03.2024;18:42;77,847;
23.03.2024;18:27;77,849;
23.03.2024;18:12;77,847;
23.03.2024;17:58;77,849;
23.03.2024;17:42;77,849;
23.03.2024;17:27;77,849;
23.03.2024;17:12;77,846;
23.03.2024;16:58;77,848;
23.03.2024;16:42;77,848;
23.03.2024;16:27;77,845;
23.03.2024;16:12;77,847;
23.03.2024;15:58;77,844;
23.03.2024;15:42;77,846;
23.03.2024;15:27;77,846;
23.03.2024;15:12;77,846;
23.03.2024;14:58;77,845;
23.03.2024;14:42;77,845;
23.03.2024;14:27;77,844;
23.03.2024;14:12;77,846;
23.03.2024;13:58;77,845;
23.03.2024;13:42;77,846;
23.03.2024;13:27;77,847;
23.03.2024;13:12;77,850;
23.03.2024;12:58;77,847;
23.03.2024;12:42;77,847;
23.03.2024;12:27;77,846;
23.03.2024;12:12;77,848;
23.03.2024;11:58;77,846;
23.03.2024;11:42;77,847;
23.03.2024;11:27;77,848;
23.03.2024;11:12;77,847;
23.03.2024;10:58;77,847;
23.03.2024;10:42;77,847;
23.03.2024;10:27;77,846;
23.03.2024;10:12;77,846;
23.03.2024;09:58;77,846;
23.03.2024;09:42;77,847;
23.03.2024;09:27;77,846;
23.03.2024;09:12;77,846;
23.03.2024;08:58;77,847;
23.03.2024;08:42;77,848;
23.03.2024;08:27;77,848;
23.03.2024;08:12;77,847;
23.03.2024;07:58;77,848;
23.03.2024;07:42;77,848;
23.03.2024;07:27;77,848;
23.03.2024;07:12;77,848;
23.03.2024;06:58;77,849;
23.03.2024;06:42;77,849;
23.03.2024;06:27;77,849;
23.03.2024;06:12;77,849;
23.03.2024;05:58;77,850;
23.03.2024;05:42;77,850;
23.03.2024;05:27;77,849;
23.03.2024;05:12;77,850;
23.03.2024;04:58;77,849;
23.03.2024;04:42;77,852;
23.03.2024;04:27;77,851;
23.03.2024;04:12;77,852;
23.03.2024;03:58;77,853;
23.03.2024;03:42;77,852;
23.03.2024;03:27;77,854;
23.03.2024;03:12;77,852;
23.03.2024;02:58;77,853;
23.03.2024;02:42;77,852;
23.03.2024;02:27;77,853;
23.03.2024;02:12;77,853;
23.03.2024;01:58;77,855;
23.03.2024;01:42;77,854;
23.03.2024;01:27;77,856;
23.03.2024;01:12;77,856;
23.03.2024;00:58;77,855;
23.03.2024;00:42;77,857;
23.03.2024;00:27;77,856;
23.03.2024;00:12;77,857;
22.03.2024;23:58;77,857;
22.03.2024;23:42;77,855;
22.03.2024;23:27;77,856;
22.03.2024;23:12;77,855;
22.03.2024;22:58;77,857;
22.03.2024;22:42;77,856;
22.03.2024;22:27;77,855;
22.03.2024;22:12;77,856;
22.03.2024;21:58;77,854;
22.03.2024;21:42;77,855;
22.03.2024;21:27;77,854;
22.03.2024;21:12;77,855;
22.03.2024;20:58;77,854;
22.03.2024;20:42;77,854;
22.03.2024;20:27;77,853;
22.03.2024;20:12;77,853;
22.03.2024;19:58;77,854;
22.03.2024;19:42;77,853;
22.03.2024;19:27;77,855;
22.03.2024;19:12;77,854;
22.03.2024;18:58;77,855;
22.03.2024;18:42;77,854;
22.03.2024;18:27;77,856;
22.03.2024;18:12;77,855;
22.03.2024;17:58;77,855;
22.03.2024;17:42;77,855;
22.03.2024;17:27;77,855;
22.03.2024;17:12;77,855;
22.03.2024;16:58;77,853;
22.03.2024;16:42;77,854;
22.03.2024;16:27;77,852;
22.03.2024;16:12;77,854;
22.03.2024;15:58;77,854;
22.03.2024;15:42;77,854;
22.03.2024;15:27;77,855;
22.03.2024;15:12;77,853;
22.03.2024;14:58;77,856;
22.03.2024;14:42;77,854;
22.03.2024;14:27;77,855;
22.03.2024;14:12;77,856;
22.03.2024;13:58;77,855;
22.03.2024;13:42;77,855;
22.03.2024;13:27;77,853;
22.03.2024;13:12;77,854;
22.03.2024;12:58;77,851;
22.03.2024;12:42;77,853;
22.03.2024;12:27;77,853;
22.03.2024;12:12;77,853;
22.03.2024;11:58;77,853;
22.03.2024;11:42;77,852;
22.03.2024;11:27;77,852;
22.03.2024;11:12;77,853;
22.03.2024;10:58;77,853;
22.03.2024;10:42;77,852;
22.03.2024;10:27;77,853;
22.03.2024;10:12;77,852;
22.03.2024;09:58;77,853;
22.03.2024;09:42;77,853;
22.03.2024;09:27;77,852;
22.03.2024;09:12;77,852;
22.03.2024;08:58;77,853;
22.03.2024;08:42;77,853;
22.03.2024;08:27;77,852;
22.03.2024;08:12;77,853;
22.03.2024;07:58;77,852;
22.03.2024;07:42;77,854;
22.03.2024;07:27;77,853;
22.03.2024;07:12;77,854;
22.03.2024;06:58;77,852;
22.03.2024;06:42;77,853;
22.03.2024;06:27;77,853;
22.03.2024;06:12;77,854;
22.03.2024;05:58;77,854;
22.03.2024;05:42;77,854;
22.03.2024;05:27;77,854;
22.03.2024;05:12;77,853;
22.03.2024;04:58;77,853;
22.03.2024;04:42;77,853;
22.03.2024;04:27;77,855;
22.03.2024;04:12;77,855;
22.03.2024;03:58;77,855;
22.03.2024;03:42;77,855;
22.03.2024;03:27;77,855;
22.03.2024;03:12;77,857;
22.03.2024;02:58;77,855;
22.03.2024;02:42;77,856;
22.03.2024;02:27;77,856;
22.03.2024;02:12;77,857;
22.03.2024;01:58;77,856;
22.03.2024;01:42;77,857;
22.03.2024;01:27;77,856;
22.03.2024;01:12;77,858;
22.03.2024;00:58;77,857;
22.03.2024;00:42;77,856;
22.03.2024;00:27;77,857;
22.03.2024;00:12;77,857;
21.03.2024;23:58;77,857;
21.03.2024;23:42;77,858;
21.03.2024;23:27;77,857;
21.03.2024;23:12;77,857;
21.03.2024;22:58;77,857;
21.03.2024;22:42;77,858;
21.03.2024;22:27;77,858;
21.03.2024;22:12;77,856;
21.03.2024;21:58;77,856;
21.03.2024;21:42;77,855;
21.03.2024;21:27;77,857;
21.03.2024;21:12;77,856;
21.03.2024;20:58;77,858;
21.03.2024;20:42;77,858;
21.03.2024;20:27;77,858;
21.03.2024;20:12;77,857;
21.03.2024;19:58;77,858;
21.03.2024;19:42;77,856;
21.03.2024;19:27;77,858;
21.03.2024;19:12;77,856;
21.03.2024;18:58;77,858;
21.03.2024;18:42;77,857;
21.03.2024;18:27;77,857;
21.03.2024;18:12;77,856;
21.03.2024;17:58;77,858;
21.03.2024;17:42;77,857;
21.03.2024;17:27;77,857;
21.03.2024;17:12;77,858;
21.03.2024;16:58;77,857;
21.03.2024;16:42;77,857;
21.03.2024;16:27;77,856;
21.03.2024;16:12;77,857;
21.03.2024;15:58;77,858;
21.03.2024;15:42;77,858;
21.03.2024;15:27;77,858;
21.03.2024;15:12;77,858;
21.03.2024;14:58;77,858;
21.03.2024;14:42;77,858;
21.03.2024;14:27;77,857;
21.03.2024;14:12;77,857;
21.03.2024;13:58;77,858;
21.03.2024;13:42;77,858;
21.03.2024;13:27;77,858;
21.03.2024;13:12;77,858;
21.03.2024;12:58;77,858;
21.03.2024;12:42;77,858;
21.03.2024;12:27;77,858;
21.03.2024;12:12;77,858;
21.03.2024;11:58;77,859;
21.03.2024;11:42;77,859;
21.03.2024;11:27;77,859;
21.03.2024;11:12;77,858;
21.03.2024;10:58;77,859;
21.03.2024;10:42;77,860;
21.03.2024;10:27;77,858;
21.03.2024;10:12;77,858;
21.03.2024;09:58;77,859;
21.03.2024;09:42;77,859;
21.03.2024;09:27;77,860;
21.03.2024;09:12;77,859;
21.03.2024;08:58;77,859;
21.03.2024;08:42;77,859;
21.03.2024;08:27;77,859;
21.03.2024;08:12;77,858;
21.03.2024;07:58;77,858;
21.03.2024;07:42;77,857;
21.03.2024;07:27;77,859;
21.03.2024;07:12;77,857;
21.03.2024;06:58;77,857;
21.03.2024;06:42;77,858;
21.03.2024;06:27;77,859;
21.03.2024;06:12;77,858;
21.03.2024;05:58;77,858;
21.03.2024;05:42;77,859;
21.03.2024;05:27;77,859;
21.03.2024;05:12;77,860;
21.03.2024;04:58;77,860;
21.03.2024;04:42;77,860;
21.03.2024;04:27;77,860;
21.03.2024;04:12;77,861;
21.03.2024;03:58;77,861;
21.03.2024;03:42;77,861;
21.03.2024;03:27;77,861;
21.03.2024;03:12;77,861;
21.03.2024;02:58;77,862;
21.03.2024;02:42;77,861;
21.03.2024;02:27;77,862;
21.03.2024;02:12;77,862;
21.03.2024;01:58;77,862;
21.03.2024;01:42;77,863;
21.03.2024;01:27;77,863;
21.03.2024;01:12;77,864;
21.03.2024;00:58;77,863;
21.03.2024;00:42;77,864;
21.03.2024;00:27;77,863;
21.03.2024;00:12;77,864;
20.03.2024;23:58;77,863;
20.03.2024;23:42;77,863;
20.03.2024;23:27;77,863;
20.03.2024;23:12;77,862;
20.03.2024;22:58;77,864;
20.03.2024;22:42;77,862;
20.03.2024;22:27;77,862;
20.03.2024;22:12;77,861;
20.03.2024;21:58;77,860;
20.03.2024;21:42;77,863;
20.03.2024;21:27;77,861;
20.03.2024;21:12;77,864;
20.03.2024;20:58;77,861;
20.03.2024;20:42;77,860;
20.03.2024;20:27;77,860;
20.03.2024;20:12;77,861;
20.03.2024;19:58;77,859;
20.03.2024;19:42;77,859;
20.03.2024;19:27;77,861;
20.03.2024;19:12;77,861;
20.03.2024;18:58;77,861;
20.03.2024;18:42;77,862;
20.03.2024;18:27;77,860;
20.03.2024;18:12;77,861;
20.03.2024;17:58;77,861;
20.03.2024;17:42;77,860;
20.03.2024;17:27;77,861;
20.03.2024;17:12;77,861;
20.03.2024;16:58;77,864;
20.03.2024;16:42;77,862;
20.03.2024;16:27;77,862;
20.03.2024;16:12;77,861;
20.03.2024;15:58;77,862;
20.03.2024;15:42;77,863;
20.03.2024;15:27;77,863;
20.03.2024;15:12;77,862;
20.03.2024;14:58;77,863;
20.03.2024;14:42;77,861;
20.03.2024;14:27;77,863;
20.03.2024;14:12;77,863;
20.03.2024;13:58;77,864;
20.03.2024;13:42;77,864;
20.03.2024;13:27;77,863;
20.03.2024;13:12;77,863;
20.03.2024;12:58;77,864;
20.03.2024;12:42;77,864;
20.03.2024;12:27;77,863;
20.03.2024;12:12;77,861;
20.03.2024;11:58;77,862;
20.03.2024;11:42;77,863;
20.03.2024;11:27;77,864;
20.03.2024;11:12;77,863;
20.03.2024;10:58;77,863;
20.03.2024;10:42;77,864;
20.03.2024;10:27;77,863;
20.03.2024;10:12;77,864;
20.03.2024;09:58;77,863;
20.03.2024;09:42;77,864;
20.03.2024;09:27;77,864;
20.03.2024;09:12;77,864;
20.03.2024;08:58;77,864;
20.03.2024;08:42;77,864;
20.03.2024;08:27;77,865;
20.03.2024;08:12;77,864;
20.03.2024;07:58;77,863;
20.03.2024;07:42;77,865;
20.03.2024;07:27;77,864;
20.03.2024;07:12;77,865;
20.03.2024;06:58;77,864;
20.03.2024;06:42;77,864;
20.03.2024;06:27;77,865;
20.03.2024;06:12;77,865;
20.03.2024;05:58;77,864;
20.03.2024;05:42;77,865;
20.03.2024;05:27;77,864;
20.03.2024;05:12;77,866;
20.03.2024;04:58;77,864;
20.03.2024;04:42;77,864;
20.03.2024;04:27;77,864;
20.03.2024;04:12;77,865;
20.03.2024;03:58;77,867;
20.03.2024;03:42;77,868;
20.03.2024;03:27;77,867;
20.03.2024;03:12;77,868;
20.03.2024;02:58;77,867;
20.03.2024;02:42;77,866;
20.03.2024;02:27;77,868;
20.03.2024;02:12;77,867;
20.03.2024;01:58;77,867;
20.03.2024;01:42;77,868;
20.03.2024;01:27;77,869;
20.03.2024;01:12;77,868;
20.03.2024;00:58;77,869;
20.03.2024;00:42;77,868;
20.03.2024;00:27;77,869;
20.03.2024;00:12;77,871;
19.03.2024;23:58;77,869;
19.03.2024;23:42;77,870;
19.03.2024;23:27;77,869;
19.03.2024;23:12;77,870;
19.03.2024;22:58;77,870;
19.03.2024;22:42;77,869;
19.03.2024;22:27;77,870;
19.03.2024;22:12;77,869;
19.03.2024;21:58;77,870;
19.03.2024;21:42;77,870;
19.03.2024;21:27;77,870;
19.03.2024;21:12;77,870;
19.03.2024;20:58;77,869;
19.03.2024;20:42;77,870;
19.03.2024;20:27;77,870;
19.03.2024;20:12;77,870;
19.03.2024;19:58;77,870;
19.03.2024;19:42;77,870;
19.03.2024;19:27;77,870;
19.03.2024;19:12;77,869;
19.03.2024;18:58;77,869;
19.03.2024;18:42;77,869;
19.03.2024;18:27;77,869;
19.03.2024;18:12;77,870;
19.03.2024;17:58;77,869;
19.03.2024;17:42;77,869;
19.03.2024;17:27;77,870;
19.03.2024;17:12;77,869;
19.03.2024;16:58;77,869;
19.03.2024;16:42;77,870;
19.03.2024;16:27;77,869;
19.03.2024;16:12;77,868;
19.03.2024;15:58;77,870;
19.03.2024;15:42;77,869;
19.03.2024;15:27;77,869;
19.03.2024;15:12;77,869;
19.03.2024;14:58;77,867;
19.03.2024;14:42;77,869;
19.03.2024;14:27;77,867;
19.03.2024;14:12;77,868;
19.03.2024;13:58;77,869;
19.03.2024;13:42;77,870;
19.03.2024;13:27;77,869;
19.03.2024;13:12;77,868;
19.03.2024;12:58;77,869;
19.03.2024;12:42;77,870;
19.03.2024;12:27;77,868;
19.03.2024;12:12;77,870;
19.03.2024;11:58;77,871;
19.03.2024;11:42;77,868;
19.03.2024;11:27;77,869;
19.03.2024;11:12;77,871;
19.03.2024;10:58;77,870;
19.03.2024;10:42;77,872;
19.03.2024;10:27;77,870;